Regional Weather Roundup
Issued by NWS

Home | Current Version | Previous Version | Graphics & Text | Print | Product List | Glossary On
Versions: 1 2 3 4 5 6 7 8 9 10 11 12 13 14 15 16 17 18 19 20 21 22 23 24 25 26 27 28 29 30 31 32 33 34 35 36 37 38 39 40 41 42 43 44 45 46 47 48 49 50
000
ASUS43 KDTX 210401
RWRMI
MICHIGAN HOURLY REGIONAL WEATHER ROUNDUP
NATIONAL WEATHER SERVICE DETROIT/PONTIAC MI
1200 AM EDT SAT OCT 21 2017

NOTE: "FAIR" INDICATES FEW OR NO CLOUDS BELOW 12,000 FEET WITH NO
SIGNIFICANT WEATHER AND/OR OBSTRUCTION TO VISIBILITY.

MIZ047>049-052>055-059>063-066>070-074>076-081>083-210500-
SOUTHEAST LOWER MICHIGAN

CITY           SKY/WX    TMP DP  RH WIND       PRES   REMARKS
ADRIAN         CLEAR     57  49  74 CALM      30.17R
ALMA           CLOUDY    59  50  71 S6        30.11S
ANN ARBOR      CLEAR     47  46  97 SW3       30.16R
BAD AXE        CLEAR     55  45  68 S7        30.13S
CARO           CLEAR     59  47  64 S3        30.12S
DETROIT CITY   CLEAR     62  46  55 S8        30.16S
DETROIT        MOCLDY    56  48  74 S6        30.16S
FLINT          CLEAR     58  48  69 S5        30.14R
GROSSE ILE     CLEAR     59  53  80 S9        30.16S
HILLSDALE      CLEAR     57  50  77 S6        30.15S
HOWELL         CLEAR     56  49  78 S6        30.15R

CITY           SKY/WX    TMP DP  RH WIND       PRES   REMARKS
JACKSON        CLEAR     57  49  74 S8        30.14F
LAMBERTVILLE   CLEAR     62  47  57 S5        30.16S
LANSING        CLEAR     59  50  72 S6        30.13S
LAPEER         FAIR      50  45  81 CALM      30.15S
MASON          CLEAR     61  51  70 CALM      30.14S
MONROE         CLEAR     62  44  52 S6        30.15S
MT. CLEMENS    CLEAR     53  51  94 CALM      30.14R
PONTIAC        PTCLDY    52  46  80 CALM      30.15R
PORT HOPE        N/A     62  46  55 SW6       30.10S
PORT HURON     CLEAR     46  43  87 CALM      30.16S
TRI CITIES     CLEAR     61  52  72 S9        30.12S
MIDLAND        FAIR      58  50  74 CALM      30.10S
TROY           CLEAR     54  45  71 CALM      30.17S
SAGINAW HB     CLEAR     59  48  67 S7        30.11S
$$
MIZ043>046-050>051-056>058-064>065-071>073-077>080-210500-
SOUTHWEST LOWER MICHIGAN

CITY           SKY/WX    TMP DP  RH WIND       PRES   REMARKS
BATTLE CREEK   CLEAR     60  51  72 S10       30.12F
BENTON HARBOR  MOCLDY    62  49  62 S7        30.09S
BIG RAPIDS     PTCLDY    56  49  77 E5        30.08S
COLDWATER      CLEAR     57  50  79 S5        30.14S
FREMONT        FAIR      61  50  67 S5        30.07S
HOLLAND        CLOUDY    59  50  72 S6        30.09S
GRAND RAPIDS   CLOUDY    58  51  78 S7        30.10S
IONIA          FAIR      56  50  79 SE3       30.10S
KALAMAZOO      CLOUDY    57  48  72 S7        30.12S
LUDINGTON      PTCLDY    67  49  53 S13       30.04R
MARSHALL       CLEAR     59  50  72 S3        30.13S
MOUNT PLEASANT PTCLDY    55  49  78 SE3       30.09S
MUSKEGON       PTCLDY    65  50  58 S8        30.07S
SOUTH HAVEN    CLOUDY    63  50  63 S5        30.09S
$$
MIZ016>042-210500-
NORTHERN LOWER MICHIGAN

CITY           SKY/WX    TMP DP  RH WIND       PRES   REMARKS
ALPENA         CLEAR     48  47  96 CALM      30.06S
BEAVER ISLAND  CLEAR     66  51  59 S12G23    30.00R
BELLAIRE       CLEAR     49  47  94 CALM      30.03F
CADILLAC       PTCLDY    61  47  61 S7        30.07S
CHARLEVOIX     PTCLDY    65  50  57 S10       30.04F
FRANKFORT      MOCLDY    65  51  60 SE8       30.02R
GAYLORD        PTCLDY    59  46  62 SW7       30.07R
GRAYLING       CLEAR     59  46  62 S7        30.08S
HARBOR SPRINGS CLEAR     62  48  59 S5        30.03R
HOUGHTON LAKE  CLEAR     59  49  69 CALM      30.09S
MANISTEE       MOCLDY    53  49  86 E5        30.03S
OSCODA         CLEAR     59  51  74 SW7       30.08S
PELLSTON       CLEAR     66  49  54 SW12G18   30.02S
ROGERS CITY    CLEAR     62  49  62 SW8       30.04S
TRAVERSE CITY  PTCLDY    69  50  50 VRB5      30.01S
$$
MIZ007>008-015-210500-
EASTERN UPPER MICHIGAN

CITY           SKY/WX    TMP DP  RH WIND       PRES   REMARKS
KINROSS        CLEAR     58  52  80 S5        30.01S
MACKINAC ISLAN CLEAR     64  48  56 SW7       30.02R
NEWBERRY       CLEAR     58  56  94 S12       29.98S
S. S. MARIE    CLEAR     56  51  84 E5        30.00R
MUNISING         N/A     60  53  77 SW9       29.92S
$$
MIZ004>006-011>014-085-210500-
CENTRAL UPPER MICHIGAN

CITY           SKY/WX    TMP DP  RH WIND       PRES   REMARKS
MANISTIQUE     PTCLDY    56  50  81 CALM      29.97F
ESCANABA       CLOUDY    58  54  86 S6        29.95R
MENOMINEE      CLOUDY    62  51  67 SW10      29.95S
SAWYER-GWINN   PTCLDY    58  48  71 S12       29.93S
$$
MIZ001>003-009>011-084-210500-
WESTERN UPPER MICHIGAN

CITY           SKY/WX    TMP DP  RH WIND       PRES   REMARKS
IRON MOUNTAIN  PTCLDY    60  45  57 S6        29.92R
HOUGHTON       MOCLDY    65  43  44 S10       29.83R
COPPER HARBOR    N/A     64  46  52 SW12G23   29.81R
IRONWOOD       CLOUDY    66  43  43 S14G25    29.81R
$$

ABBREVIATIONS USED IN REMARKS
   TC - TEMPERATURE IN CELSIUS
  WCI - WIND CHILL INDEX
   HX - HEAT INDEX
  VSB - VISIBILITY





USA.gov is the U.S. government's official web portal to all federal, state and local government web resources and services.